Date String (YYYY-MM-DD hh:mm:ss) UTC,Instrument flags,Ambient pressure (hPa),Sample flow (lpm),Bypass flow (lpm),Sample temperature (°C),Ambient temperature (°C),ASC tube jacket temperature (°C),LED temperature (°C),Box temperature (°C),Sample RH (%),Span deviation,Mass concentration (μg/m³),Mass concentration (μg/m³),Mass concentration (μg/m³)
DateTimeUTC,F1_M11,P_M11,Q1_M11,Q2_M11,T1_M11,T2_M11,T3_M11,T4_M11,T5_M11,U1_M11,ZSPAN_M11,X0_M11,X2_M11,X1_M11
2021-09-16 05:00:00,,0824.0,5.00,0.00,29.6,28.6,00.0,38.6,31.5,15.7,0002.6,0017.72,0007.88,0006.69
2021-09-16 05:01:00,,0824.0,5.01,0.00,29.7,28.7,00.0,38.6,31.5,15.7,0002.4,0017.49,0007.86,0006.69
2021-09-16 05:02:00,,0824.0,4.99,0.00,29.7,28.7,00.0,38.7,31.5,15.5,0002.7,0017.39,0007.85,0006.70
2021-09-16 05:03:00,,0824.0,5.00,0.00,29.7,28.8,00.0,38.7,31.5,15.4,0002.6,0018.12,0007.83,0006.70
2021-09-16 05:04:00,,0823.9,5.00,0.00,29.7,28.8,00.0,38.7,31.6,15.7,0002.7,0020.63,0007.78,0006.68
2021-09-16 05:05:00,,0824.0,5.01,0.00,29.8,28.8,00.0,38.7,31.6,15.7,0002.8,0021.05,0007.77,0006.67
2021-09-16 05:06:00,,0824.0,5.00,0.00,29.8,28.9,00.0,38.7,31.6,15.5,0003.1,0021.37,0007.76,0006.66
2021-09-16 05:07:00,,0824.0,5.00,0.00,29.8,28.9,00.0,38.8,31.6,15.2,0003.3,0021.43,0007.74,0006.66
2021-09-16 05:08:00,,0823.9,4.99,0.00,29.8,28.9,00.0,38.8,31.7,15.2,0003.1,0021.20,0007.71,0006.67
2021-09-16 05:09:00,,0823.9,5.00,0.00,29.8,28.9,00.0,38.8,31.7,15.2,0003.1,0021.94,0007.73,0006.66
2021-09-16 05:10:00,,0823.9,5.01,0.00,29.9,28.9,00.0,38.8,31.6,15.2,0002.7,0021.90,0007.78,0006.67
2021-09-16 05:11:00,,0823.9,4.99,0.00,29.8,27.2,00.0,38.8,31.2,15.2,0002.5,0021.12,0007.82,0006.67
2021-09-16 05:12:00,,0823.9,5.00,0.00,29.6,26.2,00.0,38.8,30.9,15.2,0002.0,0020.45,0007.77,0006.63
2021-09-16 05:13:00,,0823.9,4.99,0.00,29.5,26.4,00.0,38.8,30.9,15.3,0001.5,0020.26,0007.73,0006.61
2021-09-16 05:14:00,,0823.9,5.00,0.00,29.5,26.8,00.0,38.7,31.0,15.3,0001.4,0020.20,0007.74,0006.59
2021-09-16 05:15:00,,0823.8,4.99,0.00,29.5,27.1,00.0,38.7,31.1,15.4,0001.3,0017.72,0007.75,0006.59
2021-09-16 05:16:00,,0823.8,5.01,0.00,29.4,27.4,00.0,38.7,31.1,15.3,0001.2,0017.12,0007.74,0006.59
2021-09-16 05:17:00,,0823.8,4.99,0.00,29.5,27.7,00.0,38.6,31.2,15.1,0001.0,0016.20,0007.67,0006.56
2021-09-16 05:18:00,,0823.8,5.00,0.00,29.5,27.9,00.0,38.6,31.2,15.2,0000.7,0015.24,0007.60,0006.52
2021-09-16 05:19:00,,0823.8,5.00,0.00,29.5,28.0,00.0,38.6,31.3,15.1,0000.7,0015.10,0007.59,0006.49
2021-09-16 05:20:00,,0823.8,4.99,0.00,29.5,28.2,00.0,38.6,31.3,15.4,0000.8,0014.56,0007.56,0006.47
2021-09-16 05:21:00,,0823.8,5.01,0.00,29.5,28.3,00.0,38.6,31.3,15.3,0000.8,0014.18,0007.45,0006.44
2021-09-16 05:22:00,,0823.8,4.99,0.00,29.5,28.4,00.0,38.6,31.4,15.0,0001.0,0014.47,0007.37,0006.42
2021-09-16 05:23:00,,0823.8,5.02,0.00,29.6,28.5,00.0,38.6,31.4,15.0,0001.2,0014.96,0007.40,0006.41
2021-09-16 05:24:00,,0823.9,5.00,0.00,29.6,28.5,00.0,38.7,31.4,15.0,0001.6,0014.65,0007.45,0006.41
2021-09-16 05:25:00,,0823.9,5.00,0.00,29.6,28.6,00.0,38.7,31.4,15.0,0001.8,0013.97,0007.42,0006.41
2021-09-16 05:26:00,,0823.9,5.00,0.00,29.6,28.6,00.0,38.7,31.4,15.0,0001.6,0013.83,0007.40,0006.40
2021-09-16 05:27:00,,0823.9,4.99,0.00,29.7,28.7,00.0,38.7,31.5,15.0,0001.8,0014.28,0007.43,0006.38
2021-09-16 05:28:00,,0823.9,5.00,0.00,29.7,28.7,00.0,38.7,31.5,14.9,0002.1,0014.47,0007.45,0006.38
2021-09-16 05:29:00,,0823.9,5.02,0.00,29.7,28.8,00.0,38.7,31.5,14.8,0002.0,0014.57,0007.49,0006.41
2021-09-16 05:30:00,,0823.8,4.99,0.00,29.7,28.8,00.0,38.7,31.5,14.9,0001.7,0014.78,0007.56,0006.43
2021-09-16 05:31:00,,0823.9,4.99,0.00,29.7,28.8,00.0,38.8,31.6,14.8,0001.6,0014.77,0007.61,0006.46
2021-09-16 05:32:00,,0823.8,5.01,0.00,29.8,28.9,00.0,38.8,31.6,14.7,0001.5,0014.54,0007.63,0006.48
2021-09-16 05:33:00,,0823.8,5.00,0.00,29.8,28.9,00.0,38.8,31.6,14.6,0001.5,0014.16,0007.63,0006.49
2021-09-16 05:34:00,,0823.8,4.99,0.00,29.8,28.9,00.0,38.8,31.6,14.7,0001.2,0013.72,0007.61,0006.50
2021-09-16 05:35:00,,0823.8,5.00,0.00,29.8,29.0,00.0,38.8,31.7,14.6,0001.2,0013.69,0007.58,0006.52
2021-09-16 05:36:00,,0823.8,5.01,0.00,29.8,29.0,00.0,38.8,31.7,14.6,0001.2,0014.20,0007.61,0006.52
2021-09-16 05:37:00,,0823.8,4.99,0.00,29.9,29.0,00.0,38.9,31.7,14.5,0001.5,0014.97,0007.64,0006.53
2021-09-16 05:38:00,,0823.8,4.99,0.00,29.9,29.0,00.0,38.9,31.7,14.4,0001.5,0014.72,0007.63,0006.53
2021-09-16 05:39:00,,0823.8,4.99,0.00,29.9,29.1,00.0,38.9,31.7,14.4,0001.5,0014.68,0007.66,0006.55
2021-09-16 05:40:00,,0823.8,5.00,0.00,29.9,28.0,00.0,38.9,31.4,14.3,0001.4,0014.98,0007.66,0006.55
2021-09-16 05:41:00,,0823.8,5.00,0.00,29.7,26.3,00.0,38.9,31.1,14.4,0001.8,0014.88,0007.59,0006.53
2021-09-16 05:42:00,,0823.8,5.00,0.00,29.6,26.2,00.0,38.8,31.0,14.5,0001.8,0014.87,0007.55,0006.51
2021-09-16 05:43:00,,0823.8,5.01,0.00,29.5,26.6,00.0,38.8,31.0,14.5,0002.1,0015.62,0007.56,0006.50
2021-09-16 05:44:00,,0823.8,5.00,0.00,29.5,27.0,00.0,38.7,31.0,14.6,0002.0,0016.83,0007.58,0006.50
2021-09-16 05:45:00,,0823.8,5.00,0.00,29.5,27.3,00.0,38.7,31.1,14.4,0002.4,0017.64,0007.60,0006.49
2021-09-16 05:46:00,,0823.8,5.00,0.00,29.5,27.6,00.0,38.7,31.2,14.4,0002.6,0018.54,0007.61,0006.47
2021-09-16 05:47:00,,0823.7,4.99,0.00,29.5,27.8,00.0,38.7,31.2,14.2,0002.7,0018.04,0007.61,0006.47
2021-09-16 05:48:00,,0823.8,4.99,0.00,29.5,28.0,00.0,38.7,31.3,14.2,0002.7,0017.22,0007.58,0006.45
2021-09-16 05:49:00,,0823.7,5.01,0.00,29.5,28.1,00.0,38.7,31.3,14.2,0002.7,0017.37,0007.58,0006.44
2021-09-16 05:50:00,,0823.7,5.00,0.00,29.6,28.3,00.0,38.7,31.4,13.8,0002.4,0017.40,0007.57,0006.43
2021-09-16 05:51:00,,0823.7,5.00,0.00,29.6,28.4,00.0,38.7,31.4,13.7,0002.7,0017.01,0007.53,0006.40
2021-09-16 05:52:00,,0823.7,5.00,0.00,29.6,28.5,00.0,38.7,31.4,13.5,0002.8,0016.74,0007.49,0006.38
2021-09-16 05:53:00,,0823.7,5.00,0.00,29.6,28.5,00.0,38.7,31.4,13.7,0003.0,0016.86,0007.49,0006.38
2021-09-16 05:54:00,,0823.7,5.01,0.00,29.6,28.6,00.0,38.7,31.5,13.8,0002.8,0016.14,0007.46,0006.36
2021-09-16 05:55:00,,0823.7,4.99,0.00,29.7,28.6,00.0,38.7,31.5,13.7,0002.7,0014.67,0007.39,0006.33
2021-09-16 05:56:00,,0823.7,5.01,0.00,29.7,28.7,00.0,38.7,31.5,13.8,0002.7,0013.71,0007.35,0006.31
2021-09-16 05:57:00,,0823.8,5.00,0.00,29.7,28.7,00.0,38.7,31.5,13.8,0002.9,0013.45,0007.31,0006.31
2021-09-16 05:58:00,,0823.7,5.00,0.00,29.7,28.8,00.0,38.8,31.5,13.7,0002.9,0013.56,0007.29,0006.30
2021-09-16 05:59:00,,0823.7,5.00,0.00,29.8,28.8,00.0,38.8,31.6,13.5,0002.9,0013.44,0007.28,0006.29
